Regional Weather Roundup
Issued by NWS

Home | Current Version | Previous Version | Text Only | Print | Product List | Glossary On
Versions: 1 2 3 4 5 6 7 8 9 10 11 12 13 14 15 16 17 18 19 20 21 22 23 24 25 26 27 28 29 30 31 32 33 34 35 36 37 38 39 40 41 42 43 44 45 46 47 48 49 50
000
ASUS43 KMKX 180621
RWRWI

WISCONSIN REGIONAL WEATHER ROUNDUP
NATIONAL WEATHER SERVICE MILWAUKEE/SULLIVAN WI
100 AM CDT FRI APR 18 2014

NOTE: "FAIR" INDICATES FEW OR NO CLOUDS BELOW 12,000 FEET WITH NO
SIGNIFICANT WEATHER AND/OR OBSTRUCTIONS TO VISIBILITY.

WIZ001-002-006>008-014>016-023>028-180700-
NORTHWEST WISCONSIN

CITY           SKY/WX    TMP DP  RH WIND       PRES   REMARKS
SUPERIOR ARPT  FAIR      24  22  92 CALM      30.34R
6HR MIN TEMP:  23; 6HR MAX TEMP:  38;

ASHLAND        FAIR      26  24  92 W3        30.33R
6HR MIN TEMP:  25; 6HR MAX TEMP:  35;

HAYWARD        FOG       20  17  88 CALM      30.30S VSB 1/4
6HR MIN TEMP:  20; 6HR MAX TEMP:  35;

SIREN          FAIR      24  23  96 CALM      30.33R
6HR MIN TEMP:  23; 6HR MAX TEMP:  39;

RICE LAKE      FAIR      25  23  95 CALM      30.33S FOG
6HR MIN TEMP:  24; 6HR MAX TEMP:  35;

LADYSMITH      FAIR      26  24  93 CALM      30.32R
6HR MIN TEMP:  26; 6HR MAX TEMP:  35;

EAU CLAIRE     FAIR      25  24  96 CALM      30.32R
6HR MIN TEMP:  25; 6HR MAX TEMP:  38;

MENOMONIE      FAIR      29  27  93 CALM      30.33R
6HR MIN TEMP:  28; 6HR MAX TEMP:  40;

NEW RICHMOND   FAIR      28  28 100 CALM      30.33R
6HR MIN TEMP:  27; 6HR MAX TEMP:  38;

OSCEOLA        FAIR      23  22  99 E5        30.36R WCI  16
6HR MIN TEMP:  23; 6HR MAX TEMP:  39;

$$

WIZ003>005-009-010-017-018-180700-
NORTH CENTRAL WISCONSIN

CITY           SKY/WX    TMP DP  RH WIND       PRES   REMARKS
WOODRUFF       CLOUDY    32  26  80 NW6       30.27S WCI  26
6HR MIN TEMP:  32; 6HR MAX TEMP:  34;

RHINELANDER    CLOUDY    31  24  75 NW6       30.27S WCI  25
6HR MIN TEMP:  31; 6HR MAX TEMP:  33;

EAGLE RIVER    CLOUDY    31  23  72 NW5       30.26S WCI  26
6HR MIN TEMP:  31; 6HR MAX TEMP:  33;

LAND O LAKES   CLOUDY    31  24  77 NW6       30.27R WCI  25
6HR MIN TEMP:  31; 6HR MAX TEMP:  33;

PHILLIPS       FAIR      26  23  87 CALM      30.28S
6HR MIN TEMP:  26; 6HR MAX TEMP:  32;

TOMAHAWK       CLOUDY    32  26  78 CALM      30.28S
6HR MIN TEMP:  31; 6HR MAX TEMP:  33;

MEDFORD        CLOUDY    31  25  76 CALM      30.29S
6HR MIN TEMP:  31; 6HR MAX TEMP:  33;

MERRILL        CLOUDY    33  26  77 CALM      30.29R
6HR MIN TEMP:  32; 6HR MAX TEMP:  36;

$$

WIZ029-030-035-036-043>047-180700-
CENTRAL WISCONSIN

CITY           SKY/WX    TMP DP  RH WIND       PRES   REMARKS
WAUSAU         CLOUDY    34  25  69 NW5       30.28R WCI  30
6HR MIN TEMP:  34; 6HR MAX TEMP:  37;

MOSINEE        CLOUDY    32  28  86 NW7       30.30R WCI  26
MARSHFIELD     CLOUDY    34  26  72 N6        30.29S WCI  29
6HR MIN TEMP:  34; 6HR MAX TEMP:  38;

STEVENS POINT  CLOUDY    33  26  77 NW3       30.30R
6HR MIN TEMP:  33; 6HR MAX TEMP:  37;

WAUPACA        CLOUDY    39  28  65 NW7       30.30R WCI  34
WAUTOMA        CLOUDY    36  29  76 N5        30.31R WCI  32
6HR MIN TEMP:  36; 6HR MAX TEMP:  43;

WISC RAPIDS    CLOUDY    35  27  72 NW3       30.31S
6HR MIN TEMP:  35; 6HR MAX TEMP:  39;

CAMP DOUGLAS   CLOUDY    35  30  81 NW7       30.30S WCI  29
6HR MIN TEMP:  35; 6HR MAX TEMP:  40;

$$

WIZ011>013-019>022-031-037>040-048>050-180700-
NORTHEAST WISCONSIN

CITY           SKY/WX    TMP DP  RH WIND       PRES   REMARKS
ANTIGO         CLOUDY    32  26  78 N9        30.27S WCI  24
6HR MIN TEMP:  32; 6HR MAX TEMP:  35;

STURGEON BAY   CLOUDY    36  28  75 NW8       30.28S WCI  29
6HR MIN TEMP:  37; 6HR MAX TEMP:  43;

GREEN BAY      CLOUDY    37  33  85 NW3       30.29R
6HR MIN TEMP:  36; 6HR MAX TEMP:  48;

MANITOWOC      CLOUDY    40  35  83 NW9       30.29R WCI  34
6HR MIN TEMP:  40; 6HR MAX TEMP:  49;

APPLETON       FAIR      32  28  86 NW6       30.29S WCI  26
CLINTONVILLE   CLOUDY    36  28  75 N5        30.29S WCI  32
OSHKOSH        FAIR      35  29  78 NW5       30.28S WCI  31
6HR MIN TEMP:  34; 6HR MAX TEMP:  49;

$$

WIZ032>034-041-042-053>061-180700-
SOUTHWEST WISCONSIN

CITY           SKY/WX    TMP DP  RH WIND       PRES   REMARKS
LA CROSSE      MOCLDY    37  26  64 N6        30.33R WCI  32
6HR MIN TEMP:  37; 6HR MAX TEMP:  40;

SPARTA         CLOUDY    36  27  71 N8        30.33R WCI  29
6HR MIN TEMP:  36; 6HR MAX TEMP:  40;

VIROQUA        FAIR      33  29  86 CALM      30.30R
6HR MIN TEMP:  33; 6HR MAX TEMP:  38;

BOSCOBEL       FAIR      30  27  88 CALM      30.32R FOG
6HR MIN TEMP:  30; 6HR MAX TEMP:  48;

PRAIRIE DU CHI FAIR      32  28  88 CALM      30.32R
6HR MIN TEMP:  31; 6HR MAX TEMP:  45;

PLATTEVILLE    FAIR      33  30  89 N5        30.31R WCI  28
6HR MIN TEMP:  32; 6HR MAX TEMP:  49;

$$

WIZ056-057-062-063-064-067-068-180700-
SOUTH CENTRAL WISCONSIN

CITY           SKY/WX    TMP DP  RH WIND       PRES   REMARKS
BARABOO/DELLS  FAIR      30  28  92 CALM      30.29S
6HR MIN TEMP:  30; 6HR MAX TEMP:  44;

LONE ROCK      FAIR      36  30  79 CALM      30.31R
6HR MIN TEMP:  35; 6HR MAX TEMP:  51;

WATERTOWN      FAIR      35  32  88 N5        30.28S WCI  31
6HR MIN TEMP:  35; 6HR MAX TEMP:  51;

MADISON        FAIR      33  30  88 NW3       30.30R
6HR MIN TEMP:  33; 6HR MAX TEMP:  52;

MIDDLETON      FAIR      32  31  94 CALM      30.30R
6HR MIN TEMP:  32; 6HR MAX TEMP:  54;

MONROE         FAIR      35  35 100 N8        30.27F WCI  28
6HR MIN TEMP:  36; 6HR MAX TEMP:  53;

JANESVILLE     FAIR      39  32  75 CALM      30.28S
$$

WIZ051-052-058>065-066-070>072-180700-
SOUTHEAST WISCONSIN

CITY           SKY/WX    TMP DP  RH WIND       PRES   REMARKS
MILWAUKEE      MOCLDY    43  35  73 N6        30.28R
6HR MIN TEMP:  43; 6HR MAX TEMP:  55;

WAUKESHA       CLOUDY    37  32  81 NW5       30.29R WCI  34
MILWAUKEE/TIMM FAIR      39  32  75 N10       30.28S WCI  32
RACINE         FAIR      42  36  79 NE5       30.29R
6HR MIN TEMP:  39; 6HR MAX TEMP:  54;

BURLINGTON     FAIR      40  35  83 N5        30.27R
6HR MIN TEMP:  40; 6HR MAX TEMP:  52;

KENOSHA        MOCLDY    41  37  86 N6        30.27R
6HR MIN TEMP:  41; 6HR MAX TEMP:  53;

FOND DU LAC    FAIR      34  29  82 NW5       30.28S WCI  30
6HR MIN TEMP:  34; 6HR MAX TEMP:  50;

SHEBOYGAN      FAIR      37  33  85 NW7       30.28R WCI  32
6HR MIN TEMP:  37; 6HR MAX TEMP:  52;

WEST BEND      MOCLDY    36  32  87 N5        30.28R WCI  32
JUNEAU         FAIR      33  31  90 N3        30.29S
6HR MIN TEMP:  33; 6HR MAX TEMP:  49;

$$

LSZ147-162-180700-
LAKE SUPERIOR

STATION/POSITION TIME  TEMP    WIND        PRES    WAVE
                       AIR SEA DIR/SP/G            HT/PER
                 (UTC) (F)     (DEG/KT/KT) (MB)    (FT/S)
DEVILS ISLAND    0600   33     300/  9/ 10 1027.6F
PORT WING        0540   27     170/  3/  4 1027.1R
SAXON HARBOR     0540             CALM     1026.4S
$$

LMZ867-665-643>646-180700-
LAKE MICHIGAN

STATION/POSITION TIME  TEMP    WIND        PRES    WAVE
                       AIR SEA DIR/SP/G            HT/PER
                 (UTC) (F)     (DEG/KT/KT) (MB)    (FT/S)
NORTHPORT PIER   0500   38     290/  6/ 10 1024.7S
SISTER BAY       0523   36        CALM       N/A
KEWAUNEE LAKESHO 0500   40     300/  4/  4 1025.4F
SHEBOYGAN LAKESH 0600   40     350/  8/  9 1026.1R
PORT WASHINGTON  0500   43     320/  6/ 10 1025.4R
MILWAUKEE LAKESH 0600   44     330/  8/ 11   N/A
KENOSHA   LAKESH 0600   43     360/  5/  7   N/A
$$

TC  - TEMPERATURE IN CELSIUS
VSB - VISIBILITY IN STATUTE MILES
WCI - WIND CHILL INDEX
HX  - HEAT INDEX




USA.gov is the U.S. government's official web portal to all federal, state and local government web resources and services.